OK,97,27,777,97,2014-10-01T01:45:00,1,28072547,185396
OK,97,27,777,97,2014-10-01T01:50:00,0,28072996,185396
OK,97,27,777,97,2014-10-01T01:55:00,0,28073443,185396
OK,65,40,777,65,2014-10-01T02:05:00,0,28074209,185396
OK,123,21,777,123,2014-10-01T02:15:00,0,28075098,185396
OK,123,21,777,123,2014-10-01T02:20:00,0,28075547,185396
OK,123,21,777,123,2014-10-01T02:25:00,0,28075993,185396
OK,123,21,777,123,2014-10-01T02:30:00,0,28076379,185396
OK,123,21,777,123,2014-10-01T02:35:00,0,28076828,185396
OK,123,21,777,123,2014-10-01T02:40:00,0,28077277,185396
OK,123,21,777,123,2014-10-01T02:50:00,0,28078129,185396
OK,123,21,777,123,2014-10-01T02:55:00,0,28078578,185396
OK,123,21,777,123,2014-10-01T03:00:00,0,28079023,185396
OK,123,21,777,123,2014-10-01T03:05:00,0,28079471,185396
OK,123,21,777,123,2014-10-01T03:10:00,0,28079914,185396
OK,148,17,777,148,2014-10-01T03:20:00,0,28080697,185396
OK,148,17,777,148,2014-10-01T03:25:00,0,28081146,185396
OK,148,17,777,148,2014-10-01T03:30:00,0,28081594,185396
OK,148,17,777,148,2014-10-01T03:35:00,0,28082042,185396
OK,148,17,777,148,2014-10-01T03:40:00,0,28082491,185396
OK,148,17,777,148,2014-10-01T03:45:00,0,28082924,185396
OK,148,17,777,148,2014-10-01T03:50:00,0,28083356,185396
OK,85,31,777,85,2014-10-01T03:55:00,1,28083805,185396
OK,85,31,777,85,2014-10-01T04:00:00,1,28084254,185396
OK,85,31,777,85,2014-10-01T04:05:00,0,28084695,185396
OK,85,31,777,85,2014-10-01T04:10:00,0,28085120,185396
OK,85,31,777,85,2014-10-01T04:15:00,0,28085569,185396
OK,106,25,777,106,2014-10-01T04:20:00,3,28086014,185396
OK,117,22,777,117,2014-10-01T04:25:00,3,28086463,185396
OK,162,16,777,162,2014-10-01T04:30:00,1,28086905,185396
OK,99,26,777,99,2014-10-01T04:35:00,1,28087354,185396
OK,99,26,777,99,2014-10-01T04:40:00,1,28087799,185396
OK,93,28,777,93,2014-10-01T04:45:00,1,28088248,185396
OK,95,28,777,95,2014-10-01T04:50:00,2,28088672,185396
OK,103,25,777,103,2014-10-01T04:55:00,2,28089121,185396
OK,113,23,777,113,2014-10-01T05:00:00,2,28089551,185396
OK,110,24,777,110,2014-10-01T05:05:00,2,28090000,185396
OK,104,25,777,104,2014-10-01T05:10:00,1,28090449,185396
OK,95,28,777,95,2014-10-01T05:15:00,2,28090793,185396
OK,101,26,777,101,2014-10-01T05:20:00,4,28091242,185396
OK,106,25,777,106,2014-10-01T05:25:00,3,28091691,185396
OK,164,16,777,164,2014-10-01T05:30:00,4,28092108,185396
OK,183,14,777,183,2014-10-01T05:35:00,8,28092556,185396
OK,200,13,777,200,2014-10-01T05:40:00,5,28093001,185396
OK,211,12,777,211,2014-10-01T05:45:00,1,28093442,185396
OK,203,13,777,203,2014-10-01T05:50:00,1,28093873,185396
OK,283,9,777,283,2014-10-01T05:55:00,5,28094321,185396
OK,283,9,777,283,2014-10-01T06:00:00,6,28094732,185396
OK,230,11,777,230,2014-10-01T06:05:00,2,28095178,185396
OK,149,17,777,149,2014-10-01T06:10:00,2,28095625,185396
OK,201,13,777,201,2014-10-01T06:20:00,4,28096487,185396
OK,194,13,777,194,2014-10-01T06:25:00,5,28096936,185396
OK,194,13,777,194,2014-10-01T06:30:00,7,28097370,185396
OK,201,13,777,201,2014-10-01T06:35:00,3,28097819,185396
OK,120,22,777,120,2014-10-01T06:40:00,2,28098268,185396
OK,156,17,777,156,2014-10-01T06:45:00,5,28098705,185396
OK,141,18,777,141,2014-10-01T06:50:00,6,28099149,185396
OK,136,19,777,136,2014-10-01T07:00:00,3,28099940,185396
OK,203,13,777,203,2014-10-01T07:10:00,0,28100696,185396
OK,151,17,777,151,2014-10-01T07:20:00,8,28101516,185396
OK,152,17,777,152,2014-10-01T07:25:00,7,28101965,185396
OK,107,24,777,107,2014-10-01T07:30:00,1,28102401,185396
OK,107,24,777,107,2014-10-01T07:35:00,5,28102850,185396
OK,110,24,777,110,2014-10-01T07:40:00,6,28103277,185396
OK,121,21,777,121,2014-10-01T07:45:00,12,28103724,185396
OK,121,21,777,121,2014-10-01T07:50:00,13,28104169,185396
OK,113,23,777,113,2014-10-01T07:55:00,6,28104614,185396
OK,114,23,777,114,2014-10-01T08:00:00,5,28105055,185396
OK,128,20,777,128,2014-10-01T08:05:00,4,28105500,185396
OK,85,31,777,85,2014-10-01T08:10:00,5,28105940,185396
OK,108,24,777,108,2014-10-01T08:15:00,5,28106389,185396
OK,104,25,777,104,2014-10-01T08:20:00,8,28107216,185396
OK,206,12,777,206,2014-10-01T08:30:00,2,28107664,185396
OK,112,23,777,112,2014-10-01T08:35:00,5,28108113,185396
OK,112,23,777,112,2014-10-01T08:40:00,5,28108552,185396
OK,120,22,777,120,2014-10-01T08:45:00,1,28109001,185396
OK,30,88,777,30,2014-10-01T08:50:00,1,28109429,185396
OK,98,27,777,98,2014-10-01T09:00:00,5,28110221,185396
OK,133,20,777,133,2014-10-01T09:10:00,2,28111093,185396
OK,132,20,777,132,2014-10-01T09:20:00,4,28111971,185396
OK,114,23,777,114,2014-10-01T09:30:00,2,28112761,185396
OK,105,25,777,105,2014-10-01T09:40:00,3,28113634,185396
OK,114,23,777,114,2014-10-01T09:45:00,1,28114515,185396
OK,105,25,777,105,2014-10-01T09:50:00,3,28114879,185396
OK,96,27,777,96,2014-10-01T10:00:00,2,28115318,185396
OK,186,14,777,186,2014-10-01T10:10:00,3,28116179,185396
OK,120,22,777,120,2014-10-01T10:20:00,5,28117036,185396
OK,123,21,777,123,2014-10-01T10:30:00,2,28117910,185396
OK,114,23,777,114,2014-10-01T10:35:00,4,28118359,185396
OK,114,23,777,114,2014-10-01T10:40:00,6,28118804,185396
OK,101,26,777,101,2014-10-01T10:45:00,3,28119251,185396
OK,151,17,777,151,2014-10-01T10:50:00,4,28119695,185396
OK,114,23,777,114,2014-10-01T10:55:00,6,28120143,185396
OK,115,23,777,115,2014-10-01T11:00:00,6,28120591,185396
OK,106,25,777,106,2014-10-01T11:10:00,9,28121423,185396
OK,100,26,777,100,2014-10-01T11:20:00,1,28122310,185396
OK,110,24,777,110,2014-10-01T11:30:00,4,28123200,185396
OK,104,25,777,104,2014-10-01T11:40:00,4,28124081,185396
OK,128,20,777,128,2014-10-01T11:50:00,1,28124932,185396
OK,162,16,777,162,2014-10-01T11:55:00,6,28125380,185396
OK,161,16,777,161,2014-10-01T12:00:00,6,28125810,185396
OK,107,24,777,107,2014-10-01T12:05:00,4,28126611,185396
OK,101,26,777,101,2014-10-01T12:10:00,3,28127060,185396
OK,113,23,777,113,2014-10-01T12:20:00,2,28127509,185396
OK,94,28,777,94,2014-10-01T12:30:00,2,28128386,185396
OK,100,26,777,100,2014-10-01T12:35:00,6,28128833,185396
OK,111,23,777,111,2014-10-01T12:40:00,9,28129270,185396
OK,104,25,777,104,2014-10-01T12:50:00,4,28130153,185396
OK,103,25,777,103,2014-10-01T13:00:00,5,28131030,185396
OK,96,27,777,96,2014-10-01T13:10:00,3,28131916,185396
OK,100,26,777,100,2014-10-01T13:15:00,3,28132802,185396
OK,106,25,777,106,2014-10-01T13:20:00,2,28133240,185396
OK,121,21,777,121,2014-10-01T13:25:00,3,28133688,185396
OK,153,17,777,153,2014-10-01T13:30:00,4,28134128,185396
OK,134,19,777,134,2014-10-01T13:35:00,2,28134576,185396
OK,84,31,777,84,2014-10-01T13:40:00,0,28135001,185396
OK,193,13,777,193,2014-10-01T13:45:00,3,28135444,185396
OK,97,27,777,97,2014-10-01T13:50:00,3,28135883,185396
OK,120,22,777,120,2014-10-01T13:55:00,3,28136330,185396
OK,120,22,777,120,2014-10-01T14:00:00,3,28136771,185396
OK,106,25,777,106,2014-10-01T14:05:00,4,28137219,185396
OK,117,22,777,117,2014-10-01T14:10:00,5,28137656,185396
OK,199,13,777,199,2014-10-01T14:15:00,2,28138102,185396
OK,257,10,777,257,2014-10-01T14:20:00,1,28138535,185396
OK,101,26,777,101,2014-10-01T14:30:00,1,28138979,185396
OK,101,26,777,101,2014-10-01T14:35:00,3,28139839,185396
OK,126,21,777,126,2014-10-01T14:40:00,2,28140284,185396
OK,163,16,777,163,2014-10-01T14:45:00,0,28140730,185396
OK,101,26,777,101,2014-10-01T14:50:00,1,28141162,185396
OK,101,26,777,101,2014-10-01T15:00:00,2,28141605,185396
OK,95,28,777,95,2014-10-01T15:10:00,1,28142482,185396
OK,95,28,777,95,2014-10-01T15:20:00,0,28143358,185396
OK,119,22,777,119,2014-10-01T15:25:00,3,28143806,185396
OK,125,21,777,125,2014-10-01T15:30:00,5,28144255,185396
OK,125,21,777,125,2014-10-01T15:35:00,0,28145093,185396
OK,107,24,777,107,2014-10-01T15:45:00,1,28145539,185396
OK,107,24,777,107,2014-10-01T15:50:00,0,28145988,185396
OK,107,24,777,107,2014-10-01T15:55:00,0,28146437,185396
OK,164,16,777,164,2014-10-01T16:05:00,2,28147294,185396
OK,92,28,777,92,2014-10-01T16:10:00,4,28147738,185396
OK,108,24,777,108,2014-10-01T16:20:00,1,28148588,185396
OK,98,27,777,98,2014-10-01T16:30:00,1,28149476,185396
OK,99,26,777,99,2014-10-01T16:40:00,2,28150351,185396
OK,86,30,777,86,2014-10-01T16:50:00,0,28151218,185396
OK,111,23,777,111,2014-10-01T16:55:00,4,28151667,185396
OK,111,23,777,111,2014-10-01T17:00:00,0,28152116,185396
OK,111,23,777,111,2014-10-01T17:05:00,0,28152563,185396
OK,111,23,777,111,2014-10-01T17:10:00,0,28153010,185396
OK,123,21,777,123,2014-10-01T17:20:00,1,28153458,185396
OK,123,21,777,123,2014-10-01T17:25:00,1,28153905,185396
OK,116,22,777,116,2014-10-01T17:30:00,1,28154317,185396
OK,112,23,777,112,2014-10-01T17:35:00,2,28154766,185396
OK,121,21,777,121,2014-10-01T17:40:00,2,28155208,185396
OK,133,20,777,133,2014-10-01T17:50:00,0,28156074,185396
OK,133,20,777,133,2014-10-01T17:55:00,0,28156523,185396
OK,133,20,777,133,2014-10-01T18:00:00,0,28156970,185396
OK,113,23,777,113,2014-10-01T18:10:00,1,28157839,185396
OK,113,23,777,113,2014-10-01T18:15:00,0,28158730,185396
OK,108,24,777,108,2014-10-01T18:20:00,1,28159175,185396
OK,108,24,777,108,2014-10-01T18:25:00,1,28159516,185396
OK,115,23,777,115,2014-10-01T18:35:00,2,28159959,185396
OK,120,22,777,120,2014-10-01T18:40:00,0,28160408,185396
OK,116,22,777,116,2014-10-01T18:45:00,1,28160856,185396
OK,116,22,777,116,2014-10-01T18:50:00,1,28161295,185396
OK,110,24,777,110,2014-10-01T19:00:00,1,28162161,185396
OK,105,25,777,105,2014-10-01T19:05:00,2,28162609,185396
OK,100,26,777,100,2014-10-01T19:10:00,0,28163442,185396
OK,100,26,777,100,2014-10-01T19:20:00,0,28163891,185396
OK,100,26,777,100,2014-10-01T19:25:00,0,28164771,185396
OK,100,26,777,100,2014-10-01T19:30:00,0,28165212,185396
OK,106,25,777,106,2014-10-01T19:35:00,1,28165645,185396
OK,109,24,777,109,2014-10-01T19:40:00,2,28166087,185396
OK,115,23,777,115,2014-10-01T19:45:00,2,28166450,185396
OK,117,22,777,117,2014-10-01T19:50:00,1,28166896,185396
OK,117,22,777,117,2014-10-01T19:55:00,0,28167329,185396
OK,105,25,777,105,2014-10-01T20:00:00,1,28167759,185396
OK,105,25,777,105,2014-10-01T20:05:00,3,28168207,185396
OK,112,23,777,112,2014-10-01T20:10:00,1,28168652,185396
OK,115,23,777,115,2014-10-01T20:15:00,2,28169101,185396
OK,118,22,777,118,2014-10-01T20:25:00,0,28169549,185396
OK,118,22,777,118,2014-10-01T20:30:00,0,28170420,185396
OK,118,22,777,118,2014-10-01T20:35:00,0,28170868,185396
OK,118,22,777,118,2014-10-01T20:40:00,0,28171305,185396
OK,118,22,777,118,2014-10-01T20:45:00,0,28171751,185396
OK,118,22,777,118,2014-10-01T20:50:00,0,28172199,185396
OK,111,23,777,111,2014-10-01T20:55:00,1,28172645,185396
OK,111,23,777,111,2014-10-01T21:00:00,1,28173091,185396
OK,111,23,777,111,2014-10-01T21:05:00,0,28173540,185396
OK,111,23,777,111,2014-10-01T21:10:00,0,28173981,185396
OK,111,23,777,111,2014-10-01T21:15:00,0,28174430,185396
OK,111,23,777,111,2014-10-01T21:20:00,0,28174856,185396
OK,111,23,777,111,2014-10-01T21:25:00,0,28175252,185396
OK,111,23,777,111,2014-10-01T21:30:00,0,28175701,185396
OK,111,23,777,111,2014-10-01T21:35:00,0,28176150,185396
OK,111,23,777,111,2014-10-01T21:45:00,0,28176599,185396
OK,68,39,777,68,2014-10-01T21:50:00,1,28177395,185396
OK,68,39,777,68,2014-10-01T21:55:00,0,28177841,185396
OK,68,39,777,68,2014-10-01T22:00:00,0,28178290,185396
OK,68,39,777,68,2014-10-01T22:05:00,0,28178738,185396
OK,68,39,777,68,2014-10-01T22:10:00,0,28179178,185396
OK,68,39,777,68,2014-10-01T22:15:00,0,28179616,185396
OK,68,39,777,68,2014-10-01T22:20:00,0,28180061,185396
OK,68,39,777,68,2014-10-01T22:25:00,0,28180461,185396
OK,68,39,777,68,2014-10-01T22:30:00,0,28180908,185396
OK,68,39,777,68,2014-10-01T22:35:00,0,28181332,185396
OK,68,39,777,68,2014-10-01T22:40:00,0,28181780,185396
OK,68,39,777,68,2014-10-01T22:45:00,0,28182227,185396
OK,68,39,777,68,2014-10-01T22:50:00,0,28182676,185396
OK,68,39,777,68,2014-10-01T22:55:00,0,28183093,185396
OK,68,39,777,68,2014-10-01T23:00:00,0,28183526,185396
OK,68,39,777,68,2014-10-01T23:05:00,0,28183971,185396
OK,68,39,777,68,2014-10-01T23:10:00,0,28184420,185396
OK,77,34,777,77,2014-10-01T23:15:00,2,28184855,185396
OK,77,34,777,77,2014-10-01T23:20:00,2,28185303,185396
OK,77,34,777,77,2014-10-01T23:25:00,0,28185734,185396
OK,77,34,777,77,2014-10-01T23:30:00,0,28186126,185396
OK,77,34,777,77,2014-10-01T23:35:00,0,28186575,185396
OK,77,34,777,77,2014-10-01T23:40:00,0,28186973,185396
OK,77,34,777,77,2014-10-01T23:45:00,0,28187415,185396
OK,77,34,777,77,2014-10-01T23:50:00,0,28187864,185396
OK,77,34,777,77,2014-10-01T23:55:00,0,28188305,185396
OK,77,34,777,77,2014-10-02T00:00:00,0,28188741,185396
OK,77,34,777,77,2014-10-02T00:10:00,0,28189190,185396
OK,77,34,777,77,2014-10-02T00:20:00,0,28190061,185396
OK,77,34,777,77,2014-10-02T00:25:00,0,28190863,185396
OK,147,18,777,147,2014-10-02T00:35:00,0,28191312,185396
OK,147,18,777,147,2014-10-02T00:45:00,0,28192067,185396
OK,147,18,777,147,2014-10-02T00:50:00,0,28192946,185396
OK,147,18,777,147,2014-10-02T00:55:00,0,28193313,185396
OK,147,18,777,147,2014-10-02T01:00:00,0,28193760,185396
OK,147,18,777,147,2014-10-02T01:10:00,0,28194209,185396
OK,147,18,777,147,2014-10-02T01:15:00,0,28194658,185396
OK,147,18,777,147,2014-10-02T01:20:00,0,28195343,185396
OK,147,18,777,147,2014-10-02T01:30:00,0,28195792,185396
OK,147,18,777,147,2014-10-02T01:40:00,0,28196525,185396
OK,147,18,777,147,2014-10-02T01:45:00,0,28197397,185396
OK,147,18,777,147,2014-10-02T01:50:00,0,28197846,185396
OK,147,18,777,147,2014-10-02T02:00:00,0,28198293,185396
OK,147,18,777,147,2014-10-02T02:05:00,0,28198742,185396
OK,147,18,777,147,2014-10-02T02:10:00,0,28199559,185396
OK,147,18,777,147,2014-10-02T02:15:00,0,28199998,185396
OK,147,18,777,147,2014-10-02T02:20:00,0,28200441,185396
OK,147,18,777,147,2014-10-02T02:25:00,0,28200890,185396
OK,147,18,777,147,2014-10-02T02:30:00,0,28201322,185396
OK,147,18,777,147,2014-10-02T02:45:00,0,28202219,185396
OK,147,18,777,147,2014-10-02T02:50:00,0,28202663,185396
OK,147,18,777,147,2014-10-02T02:55:00,0,28203109,185396
OK,147,18,777,147,2014-10-02T03:00:00,0,28203547,185396
OK,147,18,777,147,2014-10-02T03:10:00,0,28203993,185396
OK,147,18,777,147,2014-10-02T03:25:00,0,28204442,185396
OK,147,18,777,147,2014-10-02T03:35:00,0,28204891,185396
OK,147,18,777,147,2014-10-02T03:40:00,0,28205767,185396
OK,68,39,777,68,2014-10-02T03:45:00,2,28206153,185396
OK,103,25,777,103,2014-10-02T04:00:00,1,28207047,185396
OK,103,25,777,103,2014-10-02T04:10:00,0,28207915,185396
OK,103,25,777,103,2014-10-02T04:20:00,0,28208791,185396
OK,52,51,777,52,2014-10-02T04:30:00,1,28209678,185396
OK,52,51,777,52,2014-10-02T04:40:00,0,28210550,185396
OK,52,51,777,52,2014-10-02T04:45:00,0,28211421,185396
OK,52,51,777,52,2014-10-02T04:50:00,0,28211800,185396
OK,152,17,777,152,2014-10-02T05:00:00,0,28212246,185396
OK,131,20,777,131,2014-10-02T05:05:00,3,28212695,185396
OK,131,20,777,131,2014-10-02T05:10:00,1,28213124,185396
OK,57,46,777,57,2014-10-02T05:15:00,1,28213573,185396
OK,57,46,777,57,2014-10-02T05:20:00,0,28214011,185396
OK,130,20,777,130,2014-10-02T05:25:00,1,28214459,185396
OK,130,20,777,130,2014-10-02T05:30:00,1,28214873,185396
OK,130,20,777,130,2014-10-02T05:35:00,0,28215316,185396
OK,139,19,777,139,2014-10-02T05:40:00,3,28215738,185396
OK,139,19,777,139,2014-10-02T05:45:00,1,28216187,185396
OK,139,19,777,139,2014-10-02T05:50:00,0,28216523,185396
OK,255,10,777,255,2014-10-02T05:55:00,5,28216966,185396
OK,214,12,777,214,2014-10-02T06:00:00,4,28217413,185396
OK,231,11,777,231,2014-10-02T06:05:00,3,28217861,185396
OK,231,11,777,231,2014-10-02T06:10:00,0,28218301,185396
OK,172,15,777,172,2014-10-02T06:15:00,5,28219170,185396
OK,142,18,777,142,2014-10-02T06:20:00,0,28219550,185396
OK,160,16,777,160,2014-10-02T06:25:00,7,28219992,185396
OK,151,17,777,151,2014-10-02T06:30:00,2,28220432,185396
OK,145,18,777,145,2014-10-02T06:40:00,1,28220875,185396
OK,137,19,777,137,2014-10-02T06:45:00,2,28221544,185396
OK,138,19,777,138,2014-10-02T07:00:00,3,28222136,185396
OK,147,18,777,147,2014-10-02T07:10:00,5,28222585,185396
OK,144,18,777,144,2014-10-02T07:15:00,3,28223454,185396
OK,144,18,777,144,2014-10-02T07:20:00,0,28223899,185396
OK,101,26,777,101,2014-10-02T07:25:00,2,28224256,185396
OK,50,53,777,50,2014-10-02T07:30:00,0,28224703,185396
OK,139,19,777,139,2014-10-02T07:40:00,1,28225152,185396
OK,102,26,777,102,2014-10-02T07:50:00,4,28225923,185396
OK,68,39,777,68,2014-10-02T07:55:00,3,28226371,185396
OK,110,24,777,110,2014-10-02T08:00:00,2,28226813,185396
OK,152,17,777,152,2014-10-02T08:10:00,1,28227677,185396
OK,56,47,777,56,2014-10-02T08:20:00,1,28228485,185396
OK,60,44,777,60,2014-10-02T08:30:00,1,28229344,185396
OK,58,45,777,58,2014-10-02T08:40:00,1,28230143,185396
OK,67,39,777,67,2014-10-02T08:50:00,4,28230958,185396
OK,79,33,777,79,2014-10-02T08:55:00,3,28231404,185396
OK,140,19,777,140,2014-10-02T09:00:00,3,28231830,185396
OK,146,18,777,146,2014-10-02T09:10:00,0,28232621,185396
OK,101,26,777,101,2014-10-02T09:20:00,0,28233070,185396
OK,160,16,777,160,2014-10-02T09:25:00,1,28233517,185396
OK,160,16,777,160,2014-10-02T09:30:00,0,28233943,185396
OK,63,42,777,63,2014-10-02T09:40:00,0,28234725,185396
OK,92,28,777,92,2014-10-02T09:50:00,2,28235601,185396
OK,65,40,777,65,2014-10-02T09:55:00,9,28236491,185396
OK,132,20,777,132,2014-10-02T10:00:00,2,28236906,185396
OK,132,20,777,132,2014-10-02T10:05:00,0,28237342,185396
OK,107,24,777,107,2014-10-02T10:10:00,3,28237790,185396
OK,141,18,777,141,2014-10-02T10:20:00,4,28238238,185396
OK,157,16,777,157,2014-10-02T10:30:00,1,28239127,185396
OK,153,17,777,153,2014-10-02T10:40:00,3,28240006,185396
OK,157,16,777,157,2014-10-02T10:50:00,0,28240899,185396
OK,162,16,777,162,2014-10-02T10:55:00,2,28241348,185396
OK,158,16,777,158,2014-10-02T11:00:00,1,28241779,185396
OK,144,18,777,144,2014-10-02T11:10:00,3,28242624,185396
OK,104,25,777,104,2014-10-02T11:15:00,2,28243073,185396
OK,151,17,777,151,2014-10-02T11:20:00,2,28243522,185396
OK,151,17,777,151,2014-10-02T11:25:00,2,28243843,185396
OK,151,17,777,151,2014-10-02T11:30:00,0,28244714,185396
OK,63,42,777,63,2014-10-02T11:40:00,3,28245163,185396
OK,62,42,777,62,2014-10-02T11:45:00,0,28246018,185396
OK,63,42,777,63,2014-10-02T11:50:00,1,28246458,185396
OK,153,17,777,153,2014-10-02T11:55:00,1,28246904,185396
OK,59,45,777,59,2014-10-02T12:05:00,2,28247351,185396
OK,59,45,777,59,2014-10-02T12:10:00,0,28248229,185396
OK,57,46,777,57,2014-10-02T12:20:00,1,28248677,185396
OK,67,39,777,67,2014-10-02T12:30:00,5,28249548,185396
OK,151,17,777,151,2014-10-02T12:35:00,5,28250365,185396
OK,142,18,777,142,2014-10-02T12:45:00,7,28251145,185396
OK,164,16,777,164,2014-10-02T13:20:00,0,28251690,185396
OK,59,45,777,59,2014-10-02T13:30:00,2,28252274,185396
OK,57,46,777,57,2014-10-02T13:35:00,1,28252716,185396
OK,57,46,777,57,2014-10-02T13:40:00,0,28253133,185396
OK,101,26,777,101,2014-10-02T13:50:00,2,28253582,185396
OK,136,19,777,136,2014-10-02T13:55:00,5,28254308,185396
OK,46,57,777,46,2014-10-02T14:10:00,3,28254885,185396
OK,55,48,777,55,2014-10-02T14:15:00,3,28255334,185396
OK,64,41,777,64,2014-10-02T14:20:00,5,28255764,185396
OK,67,39,777,67,2014-10-02T14:25:00,4,28256211,185396
OK,93,28,777,93,2014-10-02T14:30:00,2,28256639,185396
OK,118,22,777,118,2014-10-02T14:35:00,6,28257088,185396
OK,138,19,777,138,2014-10-02T14:40:00,4,28257529,185396
OK,151,17,777,151,2014-10-02T14:45:00,1,28257977,185396
OK,89,29,777,89,2014-10-02T14:50:00,1,28258410,185396
OK,89,29,777,89,2014-10-02T14:55:00,3,28258856,185396
OK,140,19,777,140,2014-10-02T15:00:00,1,28259305,185396
OK,133,20,777,133,2014-10-02T15:05:00,1,28259752,185396
OK,144,18,777,144,2014-10-02T15:10:00,4,28260186,185396
OK,155,17,777,155,2014-10-02T15:15:00,6,28260634,185396
OK,155,17,777,155,2014-10-02T15:20:00,3,28261074,185396
OK,98,27,777,98,2014-10-02T15:25:00,2,28261456,185396
OK,140,19,777,140,2014-10-02T15:30:00,1,28261886,185396
OK,66,40,777,66,2014-10-02T15:35:00,3,28262333,185396
OK,66,40,777,66,2014-10-02T15:40:00,3,28262779,185396
OK,108,24,777,108,2014-10-02T15:45:00,2,28263217,185396
OK,108,24,777,108,2014-10-02T15:50:00,0,28263658,185396
OK,108,24,777,108,2014-10-02T15:55:00,0,28264060,185396
OK,108,24,777,108,2014-10-02T16:00:00,0,28264509,185396
OK,48,55,777,48,2014-10-02T16:05:00,1,28264947,185396
OK,54,49,777,54,2014-10-02T16:10:00,3,28265387,185396
OK,54,49,777,54,2014-10-02T16:15:00,3,28265783,185396
OK,102,26,777,102,2014-10-02T16:20:00,2,28266232,185396
OK,155,17,777,155,2014-10-02T16:25:00,1,28266681,185396
OK,151,17,777,151,2014-10-02T16:30:00,1,28267006,185396
OK,151,17,777,151,2014-10-02T16:35:00,0,28267453,185396
OK,151,17,777,151,2014-10-02T16:40:00,0,28267902,185396
OK,61,43,777,61,2014-10-02T16:45:00,2,28268344,185396
OK,61,43,777,61,2014-10-02T16:50:00,0,28268793,185396
OK,61,43,777,61,2014-10-02T16:55:00,0,28269242,185396
OK,147,18,777,147,2014-10-02T17:00:00,1,28269677,185396
OK,147,18,777,147,2014-10-02T17:05:00,1,28270126,185396
OK,147,18,777,147,2014-10-02T17:10:00,0,28270560,185396
OK,147,18,777,147,2014-10-02T17:15:00,0,28271009,185396
OK,147,18,777,147,2014-10-02T17:20:00,0,28271439,185396
OK,147,18,777,147,2014-10-02T17:25:00,0,28271887,185396
OK,147,18,777,147,2014-10-02T17:30:00,0,28272323,185396
OK,147,18,777,147,2014-10-02T17:35:00,0,28272764,185396
OK,147,18,777,147,2014-10-02T17:40:00,0,28273212,185396
OK,46,57,777,46,2014-10-02T17:45:00,0,28273658,185396
OK,46,57,777,46,2014-10-02T17:55:00,0,28274107,185396
OK,153,17,777,153,2014-10-02T18:00:00,1,28274881,185396
OK,64,41,777,64,2014-10-02T18:05:00,1,28275320,185396
OK,64,41,777,64,2014-10-02T18:10:00,0,28275765,185396
OK,64,41,777,64,2014-10-02T18:15:00,0,28276211,185396
OK,64,41,777,64,2014-10-02T18:20:00,0,28276607,185396
OK,64,41,777,64,2014-10-02T18:30:00,0,28277056,185396
OK,64,41,777,64,2014-10-02T18:40:00,0,28277505,185396
OK,64,41,777,64,2014-10-02T18:45:00,0,28278302,185396
OK,57,46,777,57,2014-10-02T19:00:00,0,28278751,185396
OK,52,51,777,52,2014-10-02T19:05:00,1,28279200,185396
OK,52,51,777,52,2014-10-02T19:10:00,0,28279645,185396
OK,52,51,777,52,2014-10-02T19:15:00,0,28280086,185396
OK,52,51,777,52,2014-10-02T19:20:00,0,28280533,185396
OK,52,51,777,52,2014-10-02T19:25:00,0,28280937,185396
OK,52,51,777,52,2014-10-02T19:35:00,0,28281835,185396
OK,52,51,777,52,2014-10-02T19:40:00,0,28282266,185396
OK,52,51,777,52,2014-10-02T19:45:00,0,28282715,185396
OK,52,51,777,52,2014-10-02T19:50:00,0,28283162,185396
OK,52,51,777,52,2014-10-02T19:55:00,0,28283592,185396
OK,52,51,777,52,2014-10-02T20:00:00,0,28283962,185396
OK,48,55,777,48,2014-10-02T20:10:00,0,28284411,185396
OK,162,16,777,162,2014-10-02T20:15:00,1,28285194,185396
OK,162,16,777,162,2014-10-02T20:20:00,0,28285630,185396
OK,162,16,777,162,2014-10-02T20:25:00,0,28286045,185396
OK,158,16,777,158,2014-10-02T20:35:00,0,28286897,185396
OK,75,35,777,75,2014-10-02T20:40:00,1,28287328,185396
OK,87,30,777,87,2014-10-03T22:35:00,0,28291608,185396
OK,87,30,777,87,2014-10-03T22:40:00,0,28292057,185396
OK,87,30,777,87,2014-10-03T22:45:00,0,28292506,185396
OK,115,23,777,115,2014-10-03T22:50:00,2,28292952,185396
OK,115,23,777,115,2014-10-03T22:55:00,2,28293401,185396
OK,115,23,777,115,2014-10-03T23:00:00,0,28293850,185396
OK,115,23,777,115,2014-10-03T23:05:00,0,28294279,185396
OK,115,23,777,115,2014-10-03T23:10:00,0,28294715,185396
OK,115,23,777,115,2014-10-03T23:15:00,0,28295155,185396
OK,115,23,777,115,2014-10-03T23:25:00,0,28295604,185396
OK,115,23,777,115,2014-10-03T23:30:00,0,28296047,185396
OK,115,23,777,115,2014-10-03T23:35:00,0,28296496,185396
OK,115,23,777,115,2014-10-03T23:40:00,0,28296899,185396
OK,115,23,777,115,2014-10-03T23:45:00,0,28297326,185396
OK,115,23,777,115,2014-10-03T23:50:00,0,28297775,185396
OK,66,40,777,66,2014-10-03T23:55:00,1,28298224,185396
OK,66,40,777,66,2014-10-04T00:00:00,0,28298601,185396
OK,68,39,777,68,2014-10-04T00:15:00,1,28299206,185396
OK,89,29,777,89,2014-10-04T00:20:00,1,28299654,185396